User: anonymous   Login
Location: Bittelbronn
(48.4454°N, 8.5870°E)
Time: 07:29:27
(UTC+00:00)
Language:

NPP - Orbit

View from above orbital plane
View from above orbital plane
View from above satellite
View from above satellite

Ground track
Ground track

The orbit data is extracted from the following two-line orbital elements,

1 37849U 11061A   24197.16606272  .00000179  00000-0  10572-3 0  9998
2 37849  98.7221 134.7265 0001371 123.7020 236.4287 14.19529338658834
Epoch (UTC): 15 July 2024 03:59:07
Eccentricity: 0.0001371
inclination: 98.7221°
perigee height: 826 km
apogee height: 828 km
right ascension of ascending node: 134.7265°
argument of perigee: 123.7020°
revolutions per day: 14.19529338
mean anomaly at epoch: 236.4287°
orbit number at epoch: 65883

The dashed part of the orbit path shows where the satellite is in the earth's shadow,  

DLR